Location: site
(53.0000°N, 23.0500°E)
Time: 17:30:58
(UTC+01:00)

SAOCOM 1-A - Pass Details

Date: 22 January 2020
Orbit: 621 x 623 km, 97.9° (Epoch: 25 February)

Event Time Altitude Azimuth Distance (km) Brightness Sun altitude
Rises 05:24:30 0° 189° (S) 2,894 ? -17.9°
Reaches altitude 10° 05:26:51 10° 198° (SSW) 1,992 ? -17.5°
Maximum altitude 05:30:48 34° 264° (W) 1,040 ? -16.9°
Enters shadow 05:31:25 32° 282° (WNW) 1,074 ? -16.8°
